Power Adapter Solution & Manufacturing
Home > Products > Desktop Power Adapter >

60W Desktop Power Supply

60W Desktop Power Supply

60W Desktop Power Supply
AC Input100-240Vac +_10%50/60Hz
Output Voltage5v to 48V Single Output Models,Up to 60W
Energy efficiencyDoE Efficiency Level VI Requirements
ProtectionsOver Current,Over Voltage,Short Circuit,Reverse
CertificationUL CUL KC KCC CE FCC PSE CCC
Product materialABS+PC
DC Plug2.1*5.5*10mm
MTBF50000/Hours
Warranty2 years Warranty
Waterproofing gradIP22 Rated Enclosure
Detail Information
ModelsInputVoltageCurrentWatts   
Contact
LYD0420100100-240V4.2V1A4.2W   Click Order
LYD0505000100-240V5V5A25W   Click Order
LYD0604500100-240V6V4.5A27W   Click Order
LYD0605000100-240V6V5A30W   Click Order
LYD0704000100-240V7V4A28W   Click Order
LYD0705000100-240V7V5A35W   Click Order
LYD0753500100-240V7.5V3.5A26.25W   Click Order
LYD0754000100-240V7.5V4A30W   Click Order
LYD0754100100-240V7.5V4.1A30.75W   Click Order
LYD0754200100-240V7.5V4.2A31.5W   Click Order
LYD0754300100-240V7.5V4.3A32.25W   Click Order
LYD0754400100-240V7.5V4.4A33W   Click Order
LYD0754500100-240V7.5V4.5A33.75W   Click Order
LYD0754600100-240V7.5V4.6A34.5W   Click Order
LYD0754700100-240V7.5V4.7A35.25W   Click Order
LYD0754800100-240V7.5V4.8A36W   Click Order
LYD0754900100-240V7.5V4.9A36.75W   Click Order
LYD0755000100-240V7.5V5A37.5W   Click Order
LYD0804000100-240V8V4A32W   Click Order
LYD0805000100-240V8V5A40W   Click Order
LYD0843000100-240V8.4V3A25.2W   Click Order
LYD0844000100-240V8.4V4A33.6W   Click Order
LYD0903000100-240V9V3A27W   Click Order
LYD0903500100-240V9V3.5A31.5W   Click Order
LYD0904000100-240V9V4A36W   Click Order
LYD0904500100-240V9V4.5A40.5W   Click Order
LYD0905000100-240V9V5A45W   Click Order
LYD1003000100-240V10V3A30W   Click Order
LYD1003500100-240V10V3.5A35W   Click Order
LYD1004000100-240V10V4A40W   Click Order
LYD1004500100-240V10V4.5A45W   Click Order
LYD1202100100-240V12V2.1A25.2W   Click Order
LYD1202200100-240V12V2.2A26.4   Click Order
LYD1202300100-240V12V2.3A27.6W   Click Order
LYD1202400100-240V12V2.4A28.8W   Click Order
LYD1202500100-240V12V2.5A30W   Click Order
LYD1202600100-240V12V2.6A31.2W   Click Order
LYD1202700100-240V12V2.7A32.4W   Click Order
LYD1202800100-240V12V2.8A33.6W   Click Order
LYD1202900100-240V12V2.9A34.8W   Click Order
LYD1203000100-240V12V3A36W   Click Order
LYD1203100100-240V12V3.1A37.2W   Click Order
LYD1203200100-240V12V3.2A38.4W   Click Order
LYD1203300100-240V12V3.3A39.6W   Click Order
LYD1203400100-240V12V3.4A40.8W   Click Order
LYD1203500100-240V12V3.5A42W   Click Order
LYD1203600100-240V12V3.6A43.2W   Click Order
LYD1203700100-240V12V3.7A44.4W   Click Order
LYD1203800100-240V12V3.8A45.6W   Click Order
LYD1203900100-240V12V3.9A46.8W   Click Order
LYD1204000100-240V12V4A48W   Click Order
LYD1204100100-240V12V4.1A49.2W   Click Order
LYD1204200100-240V12V4.2A50.4W   Click Order
LYD1204300100-240V12V4.3A51.6W   Click Order
LYD1204400100-240V12V4.4A52.8W   Click Order
LYD1204500100-240V12V4.5A54W   Click Order
LYD1204600100-240V12V4.6A55.2W   Click Order
LYD1204700100-240V12V4.7A56.4W   Click Order
LYD1204800100-240V12V4.8A57.6W   Click Order
LYD1204900100-240V12V4.9A58.8W   Click Order
LYD1205000100-240V12V5A60W   Click Order
LYD1262000100-240V12.6V2A25.2W   Click Order
LYD1262500100-240V12.6V2.5A31.5W   Click Order
LYD1263000100-240V12.6V3A37.8W   Click Order
LYD1264000100-240V12.6V4A50.4W   Click Order
LYD1472000100-240V14.7V2A29.4W   Click Order
LYD1472500100-240V14.7V2.5A36.75W   Click Order
LYD1473000100-240V14.7V3A44.1W   Click Order
LYD1501700100-240V15V1.7A25.5W   Click Order
LYD1501800100-240V15V1.8A27W   Click Order
LYD1501900100-240V15V1.9A28.5W   Click Order
LYD1502000100-240V15V2A30W   Click Order
LYD1502100100-240V15V2.1A31.5W   Click Order
LYD1502200100-240V15V2.2A33W   Click Order
LYD1502300100-240V15V2.3A34.5W   Click Order
LYD1502400100-240V15V2.4A36W   Click Order
LYD1502500100-240V15V2.5A37.5W   Click Order
LYD1502600100-240V15V2.6A39W   Click Order
LYD1502700100-240V15V2.7A40.5W   Click Order
LYD1502800100-240V15V2.8A42W   Click Order
LYD1502900100-240V15V2.9A43.5W   Click Order
LYD1503000100-240V15V3A45W   Click Order
LYD1503100100-240V15V3.1A46.5W   Click Order
LYD1503200100-240V15V3.2A48W   Click Order
LYD1503300100-240V15V3.3A49.5W   Click Order
LYD1503400100-240V15V3.4A51W   Click Order
LYD1503500100-240V15V3.5A52.5W   Click Order
LYD1503600100-240V15V3.6A54W   Click Order
LYD1503700100-240V15V3.7A55.5W   Click Order
LYD1503800100-240V15V3.8A57W   Click Order
LYD1503900100-240V15V3.9A58.5W   Click Order
LYD1504000100-240V15V4A60W   Click Order
LYD1602000100-240V16V2A32W   Click Order
LYD1603000100-240V16V3A48W   Click Order
LYD1681500100-240V16.8V1.5A25.2W   Click Order
LYD1682000100-240V16.8V2A33.6W   Click Order
LYD1682500100-240V16.8V2.5A42W   Click Order
LYD1683000100-240V16.8V3A50.4W   Click Order
LYD1801400100-240V18V1.4A25.2W   Click Order
LYD1801500100-240V18V1.5A27W   Click Order
LYD1801600100-240V18V1.6A28.8W   Click Order
LYD1801700100-240V18V1.7A30.6W   Click Order
LYD1801800100-240V18V1.8A32.4W   Click Order
LYD1801900100-240V18V1.9A34.2W   Click Order
LYD1802000100-240V18V2A36W   Click Order
LYD1802100100-240V18V2.1A37.8W   Click Order
LYD1802200100-240V18V2.2A39.6W   Click Order
LYD1802300100-240V18V2.3A41.4W   Click Order
LYD1802400100-240V18V2.4A43.2W   Click Order
LYD1802500100-240V18V2.5A45W   Click Order
LYD1802600100-240V18V2.6A46.8W   Click Order
LYD1802700100-240V18V2.7A48.6W   Click Order
LYD1802800100-240V18V2.8A50.4W   Click Order
LYD1802900100-240V18V2.9A52.2W   Click Order
LYD1803000100-240V18V3A54W   Click Order
LYD1803100100-240V18V3.1A55.8W   Click Order
LYD1803200100-240V18V3.2A57.6W   Click Order
LYD1803300100-240V18V3.3A59.4W   Click Order
LYD1901500100-240V19V1.5A28.5W   Click Order
LYD1902000100-240V19V2A38W   Click Order
LYD1902500100-240V19V2.5A47.5W   Click Order
LYD1903000100-240V19V3A57W   Click Order
LYD2002000100-240V20V2A40W   Click Order
LYD2002400100-240V20V2.4A48W   Click Order
LYD2003000100-240V20V3A60W   Click Order
LYD2101200100-240V21V1.2A25.2W   Click Order
LYD2101300100-240V21V1.3A27.3W   Click Order
LYD2101400100-240V21V1.4A29.4W   Click Order
LYD2101500100-240V21V1.5A31.5W   Click Order
LYD2101600100-240V21V1.6A33.6W   Click Order
LYD2101700100-240V21V1.7A35.7W   Click Order
LYD2101800100-240V21V1.8A37.8W   Click Order
LYD2101900100-240V21V1.9A39.9W   Click Order
LYD2102000100-240V21V2A42W   Click Order
LYD2102100100-240V21V2.1A44.1W   Click Order
LYD2102200100-240V21V2.2A46.2W   Click Order
LYD2102300100-240V21V2.3A48.3W   Click Order
LYD2102400100-240V21V2.4A50.4W   Click Order
LYD2102500100-240V21V2.5A52.5W   Click Order
LYD2102600100-240V21V2.6A54.6W   Click Order
LYD2102700100-240V21V2.7A56.7W   Click Order
LYD2102800100-240V21V2.8A58.8A   Click Order
LYD2102800100-240V22V2A44W   Click Order
LYD2202500100-240V22V2.5A55W   Click Order
LYD2401100100-240V24V1.1A26.4W   Click Order
LYD2401200100-240V24V1.2A28.8W   Click Order
LYD2401300100-240V24V1.3A31.2W   Click Order
LYD2401400100-240V24V1.4A33.6W   Click Order
LYD2401500100-240V24V1.5A36W   Click Order
LYD2401600100-240V24V1.6A38.4W   Click Order
LYD2401700100-240V24V1.7A40.8W   Click Order
LYD2401800100-240V24V1.8A43.2W   Click Order
LYD2401900100-240V24V1.9A45.6W   Click Order
LYD2402000100-240V24V2A48W   Click Order
LYD2402100100-240V24V2.1A50.4W   Click Order
LYD2402200100-240V24V2.2A52.8W   Click Order
LYD2402300100-240V24V2.3A55.2W   Click Order
LYD2402400100-240V24V2.4A57.6W   Click Order
LYD2402500100-240V24V2.5A60W   Click Order
LYD2502000100-240V25V2A50W   Click Order
LYD2502400100-240V25V2.4A60W   Click Order
LYD2521000100-240V25.2A1A25.2W   Click Order
LYD2521500100-240V25.2V1.5A37.8W   Click Order
LYD2521800100-240V25.2V1.8A45.36W   Click Order
LYD2522000100-240V25.2V2.2A50.4W   Click Order
LYD2601800100-240V26V1.8A46.8W   Click Order
LYD2702000100-240V27V2A54W   Click Order
LYD2801500100-240V28V1.5A42W   Click Order
LYD2801600100-240V28V1.6A44.8W   Click Order
LYD2902000100-240V29V2A58W   Click Order
LYD2941000100-240V29.4V1A29.4W   Click Order
LYD2941500100-240V29.4V1.5A44.1W   Click Order
LYD2942000100-240V29.4V2A58.8W   Click Order
LYD3001000100-240V30V1A30W   Click Order
LYD3001200100-240V30V1.2A36W   Click Order
LYD3001500100-240V30V1.5A45W   Click Order
LYD3002000100-240V30V2A60W   Click Order
LYD3201000100-240V32V1A32W   Click Order
LYD3201500100-240V32V1.5A48W   Click Order
LYD3361000100-240V33.6V1A33.6W   Click Order
LYD3361400100-240V33.6V1.4A47.04W   Click Order
LYD3501000100-240V35V1A35W   Click Order
LYD3501300100-240V35V1.3A45.5W   Click Order
LYD3600750100-240V36V0.75A27W   Click Order
LYD3600800100-240V36V0.8A28.8W   Click Order
LYD3601000100-240V36V1A36W   Click Order
LYD3601100100-240V36V1.1A39.6W   Click Order
LYD3601100100-240V36V1.2A43.2W   Click Order
LYD3601300100-240V36V1.3A46.8W   Click Order
LYD3601400100-240V36V1.4A50.4W   Click Order
LYD3601500100-240V36V1.5A54W   Click Order
LYD3601600100-240V36V1.6A57.6W   Click Order
LYD3801000100-240V38V1A38W   Click Order
LYD3801200100-240V38V1.2A45.6W   Click Order
LYD3801500100-240V38V1.5A57W   Click Order
LYD4001000100-240V40V1A40W   Click Order
LYD4001200100-240V40V1.2A48W   Click Order
LYD4001500100-240V40V1.5A60W   Click Order
LYD4200800100-240V42V0.8A33.6W   Click Order
LYD4201000100-240V42V1A42W   Click Order
LYD4501000100-240V45V1A45W   Click Order
LYD4601000100-240V46V1A46W   Click Order
LYD4800750100-240V48V0.75A36W   Click Order
LYD4800800100-240V48V0.8A38.4W   Click Order
LYD4800800100-240V48V1A48W   Click Order
LYD4801250100-240V48V1.25A60W   Click Order
         
         
         
         
         
FILE NAME                 OPTIONS        
UL1310 E360964 Download
KC-HU10560-16005ADownload
KCC-MSIP-REM-LYD-LYD4802500Download
FCC-DG05062381Download
CE60950-E LVD-DGS190124081Download
  
  
FILE NAME OPTIONS
CINT3110 AC-DC Power Supply Datasheet Download
CINT3110 AC-DC Power Supply Datasheet Download
CINT3110 AC-DC Power Supply Datasheet Download
CINT3110 AC-DC Power Supply Datasheet Download
CINT3110 AC-DC Power Supply Datasheet Download
CINT3110 AC-DC Power Supply Datasheet Download
LYD Light customization enquiry sheet Start customizing
Please send your enquiries to us
Contact LYD
Please send your message to us
*Email
Tel
*Title
*Content

Agree to use terms of service